JINJUSAT-1B

Satellite information

Favourite Embed

Satellite Type and Status

PAYLOADIN ORBIT

Key statistics

Satellite JINJUSAT-1B at a glance.

Uptime

274

Days in orbit

Revolutions

≈ 15.3

Per day

Orbit

SSO

Sun Synchronous Orbit

Inclination

97.4

Latest

Satellite identification and parameters

Extended collection of information and parameters for JINJUSAT-1B.

Object identification

Identified? True

Debris? False

Object name: JINJUSAT-1B

International designator: 2025-052A

Object number (NORAD): 63210

Object ID (CCSDS): 63210

Country: SOUTH KOREA (SKOR)

Current information (Y/N): Y

RCS size: SMALL

Orbital parameters

Period: 94.319 minutes

Inclination: 97.4203 deg

SMA: 6863.709 km

Apoapsis: 489.333 km

Periapsis: 481.815 km

RAAN: 239.8525 deg

Eccentricy: 0.00054767

Argument of periapsis: 44.8206 deg

Mean anomaly: 315.3474 deg

Mean motion: 15.2673795 rev/day

Mean motion (dot): 0.00018147 rev/day2

B* drag term: 0.00069175454 1/REarth

Two-line elements (TLE)

Creation date: Dec. 14, 2025, 3:07 a.m.

Reference frame: TEME

Reference center: EARTH

Epoch: Dec. 13, 2025, 4:52 p.m. UTC

TLE line 0: 0 JINJUSAT-1B

TLE line 1: 1 63210U 25052A 25347.70309950 .00018147 00000-0 69175-3 0 9992

TLE line 2: 2 63210 97.4203 239.8525 0005477 44.8206 315.3474 15.26737950 41737

Live tracking on map

Real-time ground track for satellite JINJUSAT-1B.

In-orbit conjunctions

There are no conjunctions computed for JINJUSAT-1B, at the moment. Check back to stay up to date, as we update our databases every day.

Go to all conjunctions

Associated space launch

Dedicated rideshare flight to a sun-synchronous orbit with dozens of small microsatellites and nanosatellites for commercial and government customers.

JINJUSAT-1B was lifted into orbit during the mission ‘Falcon 9 Block 5 | Transporter 13 (Dedicated SSO Rideshare)’, on board a Falcon 9 space rocket.

The launch took place on March 15, 2025, 6:43 a.m. from Space Launch Complex 4E.

For more information about the launch, click the button.

Launch to space Falcon 9 Block 5 | Transporter 13 (Dedicated SSO Rideshare)
Falcon 9 Block 5 | Transporter 13 (Dedicated SSO Rideshare)

Agency: SpaceX

Status: Launch Successful

Launch date: March 15, 2025, 6:43 a.m. UTC

Rocket: Falcon 9

Launch pad: Space Launch Complex 4E

Location: Vandenberg SFB, CA, USA

...

Latest news about this satellite

News about space launch
Varda Space reentry capsule lands in Australia, completes hypersonic research mission

W-3 focused on gathering data for military hypersonic research. The post Varda Space reentry capsule lands in Australia, completes hypersonic research mission appeared first on SpaceNews.

News about space launch
Intelligence and dual-use commercial satellites launch on Transporter-13

Among the 74 payloads on SpaceX’s Transporter-13 mission was a technology demonstrator from the National Reconnaissance Office The post Intelligence and dual-use commercial satellites launch on Transporter-13 appeared first on SpaceNews.

News about space launch
NASA’s EZIE Launches on Mission to Study Earth’s Electrojets

Under the nighttime California sky, NASA’s EZIE (Electrojet Zeeman Imaging Explorer) mission launched aboard a SpaceX Falcon 9 rocket at 11:43 p.m. PDT on March 14. Taking off from Vandenberg Space Force Base near Santa Barbara, the EZIE mission’s trio of...


Newsletter sign-up

Weekly statistics, charts and insights to help you stay on top of the space industry.